252P/LINEAR (2016)

Japanese version
Home page
Updated on June 11, 2016

---------------------------------------------------------------------

* Profile

* Pictures

* Orbital Elements

Epoch 2016 July 31.0 TT = JDT 2457600.5
T 2016 Mar. 15.26488 TT                                 MPCW
q   0.9960845            (2000.0)            P               Q
n   0.18534460     Peri.  343.31553     -0.99409116     -0.10296918
a   3.0466046      Node   190.94713     +0.10811104     -0.96757765
e   0.6730509      Incl.   10.42194     -0.00973449     -0.23063141
P   5.32
From 1338 observations 2011 June 9-2016 May 18, mean residual 0".9.
     Nongravitational parameters A1 = +0.59, A2 = -0.0205.

* Finding Charts

* Magnitudes Graph

        m1 = 18.0 + 5 log d +  10.0 log r          [   ,-17]  (             - 2016 Feb. 27)
        m1 = 10.5 + 5 log d + 170   log r(t - 18)  [-17, 16]  (2016 Feb. 27 - 2016 Mar. 31)
        m1 = 10.0 + 5 log d +  30   log r(t - 30)  [ 16,   ]  (2016 Mar. 31 -             )

        * Gray curve is:  m1 = 18.0 + 5 log d + 10.0 log r

---------------------------------------------------------------------

The orbital elements are published on M.P.E.C. 2016-K18.
The charts are made with StellaNavigator Ver.8 (AstroArts).
The magnitudes graphs are made with Comet for Windows.

---------------------------------------------------------------------

Copyright(C) Seiichi Yoshida (comet@aerith.net). All rights reserved.